#timestamp,LO_Frequency,Hit,StdDev 
1562349615.1,286046994.8,N
1562349635.9,286046994.1,N
1562349655.7,286046987.7,N
1562349675.5,286046982.6,N
1562349695.4,286046989.2,N
1562349715.2,286046982.4,N
1562349735.0,286046986.6,N
1562349735.9,286046986.6,N
1562349755.8,286046986.6,N
1562349775.6,286046989.3,N
1562349795.4,286046989.7,N
1562349815.3,286046988.5,N
1562349835.1,286046986.3,N
1562349855.8,286046983.1,N
1562349875.7,286046984.7,N
1562349895.5,286046988.1,N
1562349915.4,286046986.3,N
1562349935.2,286046987.1,N
1562349955.0,286046991.1,N
1562349955.9,286046991.1,N
1562349975.8,286046986.4,N
1562349995.6,286046984.9,N
1562350015.4,286046983.6,N
1562350035.3,286046985.7,N
1562350055.1,286046991.3,N
1562350056.0,286046991.3,N
1562350075.8,286046989.6,N
1562350095.7,286046987.7,N
1562350115.5,286046988.9,N
1562350135.3,286046986.6,Y
1562350155.2,286046992.2,P
1562350175.9,286046992.4,P
1562350195.7,286046996.1,N
1562350215.6,286046994.5,N
1562350235.4,286046997.7,N
1562350255.2,286046996.3,N
1562350275.1,286046996.8,N
1562350276.0,286046996.8,N
1562350295.8,286046994.8,N
1562350315.6,286046993.1,N
1562350335.5,286046986.3,Y
1562350355.3,286047005.2,P
1562350375.1,286047009.1,N
1562350395.9,286047007.5,N
1562350415.7,286047005.1,N
1562350435.5,286047000.2,N
1562350455.4,286047011.0,N
1562350475.2,286047007.1,N
1562350495.0,286047011.9,N
1562350495.9,286047011.9,N
1562350515.8,286047009.3,N
1562350535.6,286047009.9,N
1562350555.4,286047007.9,N
1562350575.3,286047011.9,N
1562350595.1,286047008.8,N
1562350596.0,286047008.8,N
1562350615.8,286047004.5,N
1562350635.7,286047011.3,N
1562350655.5,286047004.5,N
1562350675.3,286047006.4,N
1562350695.2,286047005.9,N
1562350715.9,286047001.7,N
1562350735.7,286046996.8,N
1562350755.6,286046997.3,N
1562350775.4,286047004.0,N
1562350795.2,286047002.0,N
1562350815.1,286047006.8,N
1562350816.0,286047006.8,N
1562350835.8,286047007.6,N
1562350855.6,286047002.9,N
1562350875.5,286046998.2,N
1562350895.3,286047004.4,N
1562350915.1,286047001.6,N
1562350935.9,286047002.7,N
1562350955.7,286047002.9,N
1562350975.5,286047011.8,N
1562350995.4,286047010.2,N
1562351015.2,286047011.8,N
1562351035.0,286047008.9,N
1562351035.9,286047008.9,N
1562351055.8,286047013.9,Y
1562351075.6,286047001.9,P
1562351095.4,286046997.2,N
1562351115.3,286046993.9,N
1562351135.1,286046997.5,N
1562351136.0,286046997.5,N
1562351155.8,286046997.7,N
1562351175.7,286047000.2,N
1562351195.5,286047006.4,N
1562351215.3,286046998.3,N
1562351235.2,286046999.5,N
1562351255.9,286046993.3,N
1562351275.7,286046990.8,N
1562351295.6,286046999.1,N
1562351315.4,286047003.6,N
1562351335.2,286047008.5,N
1562351355.1,286047004.1,N
1562351356.0,286047004.1,N
1562351375.8,286047003.7,N
1562351395.6,286046997.5,N
1562351415.5,286047002.5,N
1562351435.3,286047002.2,N
1562351455.1,286046993.2,N
1562351475.9,286047000.5,N
1562351495.7,286047001.9,N
1562351515.5,286047013.5,Y
1562351535.4,286047013.7,P
1562351555.2,286047011.5,N
1562351575.0,286047009.0,N
1562351575.9,286047009.0,N
1562351595.8,286047005.2,N
1562351615.6,286047008.3,N
1562351635.4,286047010.9,N
1562351655.3,286047010.9,N
1562351675.1,286047008.3,N
1562351695.8,286047005.8,N
1562351715.7,286047011.7,Y
1562351735.5,286047004.7,P
1562351755.3,286047010.3,P
1562351775.2,286047010.6,P
1562351795.0,286047013.7,Y
1562351795.9,286047013.7,P
1562351815.7,286047003.1,N
1562351835.6,286047002.7,N
1562351855.4,286047002.0,N
1562351875.2,286046995.8,N
1562351895.1,286047005.1,N
1562351896.0,286047005.1,N
1562351915.8,286047003.3,N
1562351935.6,286047002.4,N
1562351955.5,286046999.4,N
1562351975.3,286046996.9,N
1562351995.1,286046999.1,N
1562352015.9,286046996.1,N
1562352035.7,286046998.0,N
1562352055.5,286046987.0,N
1562352075.4,286046997.1,N
1562352095.2,286047001.3,N
1562352115.0,286047002.1,N
1562352115.9,286047002.1,N
1562352135.8,286047001.3,N
1562352155.6,286047002.1,N
1562352175.4,286047000.1,N
1562352195.3,286047004.2,N
1562352215.1,286047006.5,N
1562352235.8,286047007.0,N
1562352255.7,286047006.8,N
1562352275.5,286047001.5,N
1562352295.3,286047007.4,N
1562352315.2,286047008.2,N
1562352335.0,286047007.1,N
1562352335.9,286047007.1,N
1562352355.7,286047010.1,N
1562352375.6,286047007.2,N
1562352395.4,286047007.8,N
1562352415.2,286047010.3,N
1562352435.1,286047013.5,N
1562352436.0,286047013.5,N
1562352455.8,286047010.1,N
1562352475.6,286047013.5,N
1562352495.5,286047008.1,N
1562352515.3,286047001.4,N
1562352535.1,286047005.7,N
1562352555.9,286047005.6,N
1562352575.7,286047009.2,N
1562352595.5,286047012.2,N
1562352615.4,286047014.5,Y
1562352635.2,286047012.2,P
1562352655.0,286047005.0,N
1562352655.9,286047005.0,N
1562352675.8,286046997.4,N
1562352695.6,286046993.8,N
1562352715.4,286046997.6,N
1562352735.3,286047006.7,N
1562352755.1,286047003.6,N
1562352775.8,286047001.6,N
1562352795.7,286046998.4,N
1562352815.5,286047003.7,N
1562352835.3,286047007.5,N
1562352855.2,286047002.6,N
1562352875.0,286047000.7,N
1562352875.9,286047000.7,N
1562352895.7,286047002.4,N
1562352915.6,286047011.6,N
1562352935.4,286047006.3,N
1562352955.2,286047003.1,N
1562352975.1,286047002.5,N
1562352976.0,286047002.5,N
1562352995.8,286047006.5,N
1562353015.6,286047002.4,N
1562353035.5,286046997.5,N
1562353055.3,286046999.4,N
1562353075.1,286046997.6,N
1562353095.9,286046991.8,N
1562353115.7,286046997.9,N
1562353135.5,286046993.5,N
1562353155.4,286046999.9,N
1562353175.2,286046998.6,N
1562353195.0,286047004.3,N
1562353195.9,286047004.3,N
